Location: Dampvalley
(47.9094°N, 6.1967°E)
Time: 16:30:03
(UTC+00:00)

N. Korean satellite - Pass Details

Date: 20 September 2021
Orbit: 450 x 495 km, 97.3° (Epoch: 16 October)

Event Time Altitude Azimuth Distance (km) Brightness Sun altitude
Rises 04:16:25 0° 23° (NNE) 2,506 10.8 -11.2°
Reaches altitude 10° 04:18:42 10° 37° (NE) 1,633 10.0 -10.9°
Maximum altitude 04:21:41 26° 95° (E) 969 9.0 -10.4°
Drops below altitude 10° 04:24:41 10° 154° (SSE) 1,643 9.4 -9.9°
Sets 04:26:59 0° 167° (SSE) 2,525 10.2 -9.5°
